TimeCST,TemperatureF,Dew PointF,Humidity,Sea Level PressureIn,VisibilityMPH,Wind Direction,Wind SpeedMPH,Gust SpeedMPH,PrecipitationIn,Events,Conditions,WindDirDegrees,DateUTC
12:53 AM,59.0,57.0,93,29.86,7.0,Calm,Calm,-,N/A,,Overcast,0,2012-12-07 06:53:00
1:17 AM,59.0,57.2,94,29.87,2.5,Calm,Calm,-,N/A,,Overcast,0,2012-12-07 07:17:00
1:29 AM,59.0,57.2,94,29.87,1.8,Calm,Calm,-,N/A,,Overcast,0,2012-12-07 07:29:00
1:46 AM,57.2,57.2,100,29.86,0.5,Calm,Calm,-,N/A,Fog,Fog,0,2012-12-07 07:46:00
1:53 AM,57.9,57.9,100,29.85,0.5,Calm,Calm,-,N/A,Fog,Fog,0,2012-12-07 07:53:00
2:53 AM,59.0,59.0,100,29.84,0.2,Calm,Calm,-,N/A,Fog,Fog,0,2012-12-07 08:53:00
3:21 AM,60.8,60.8,100,29.85,1.2,Calm,Calm,-,N/A,,Overcast,0,2012-12-07 09:21:00
3:28 AM,60.8,60.8,100,29.85,2.0,Calm,Calm,-,N/A,,Overcast,0,2012-12-07 09:28:00
3:41 AM,60.8,60.8,100,29.85,3.0,Calm,Calm,-,N/A,,Overcast,0,2012-12-07 09:41:00
3:53 AM,61.0,61.0,100,29.83,4.0,Calm,Calm,-,N/A,,Overcast,0,2012-12-07 09:53:00
4:53 AM,62.1,62.1,100,29.83,7.0,Calm,Calm,-,N/A,,Overcast,0,2012-12-07 10:53:00
6:53 AM,64.0,62.1,93,29.86,10.0,Calm,Calm,-,N/A,,Overcast,0,2012-12-07 12:53:00
7:41 AM,64.4,62.6,94,29.87,9.0,SSE,3.5,-,N/A,,Overcast,160,2012-12-07 13:41:00
7:53 AM,64.0,63.0,96,29.86,9.0,SSE,3.5,-,N/A,,Overcast,160,2012-12-07 13:53:00
8:35 AM,64.4,62.6,94,29.88,9.0,South,6.9,-,N/A,,Overcast,180,2012-12-07 14:35:00
8:53 AM,66.0,63.0,90,29.87,9.0,SSE,4.6,-,N/A,,Overcast,160,2012-12-07 14:53:00
9:53 AM,66.9,63.0,87,29.88,9.0,South,9.2,-,N/A,,Overcast,180,2012-12-07 15:53:00
10:33 AM,66.2,64.4,94,29.89,5.0,South,8.1,-,N/A,,Overcast,170,2012-12-07 16:33:00
10:43 AM,66.2,64.4,94,29.89,7.0,SSE,4.6,-,N/A,,Overcast,160,2012-12-07 16:43:00
10:53 AM,68.0,64.0,87,29.88,8.0,South,6.9,-,N/A,,Overcast,170,2012-12-07 16:53:00
11:26 AM,69.8,64.4,83,29.87,8.0,South,5.8,-,N/A,,Overcast,170,2012-12-07 17:26:00
11:53 AM,71.1,63.0,75,29.84,8.0,SSE,10.4,-,N/A,,Overcast,150,2012-12-07 17:53:00
12:53 PM,72.0,63.0,73,29.81,10.0,South,3.5,-,0.00,Rain,Light Rain,170,2012-12-07 18:53:00
1:53 PM,75.0,63.0,66,29.78,10.0,Calm,Calm,-,0.00,,Mostly Cloudy,0,2012-12-07 19:53:00
2:07 PM,77.0,62.6,61,29.79,10.0,SE,8.1,-,N/A,,Mostly Cloudy,130,2012-12-07 20:07:00
2:53 PM,75.9,61.0,60,29.76,10.0,SE,9.2,-,N/A,,Scattered Clouds,140,2012-12-07 20:53:00
3:53 PM,78.1,61.0,56,29.75,10.0,ESE,5.8,-,N/A,,Partly Cloudy,110,2012-12-07 21:53:00
4:53 PM,75.9,60.1,58,29.76,10.0,SE,5.8,-,N/A,,Partly Cloudy,130,2012-12-07 22:53:00
5:53 PM,73.0,59.0,61,29.75,10.0,Calm,Calm,-,N/A,,Clear,0,2012-12-07 23:53:00
7:53 PM,66.0,59.0,78,29.79,10.0,Calm,Calm,-,N/A,,Clear,0,2012-12-08 01:53:00
8:53 PM,66.0,60.1,81,29.81,10.0,SE,5.8,-,N/A,,Clear,130,2012-12-08 02:53:00
9:53 PM,66.0,61.0,84,29.82,10.0,ESE,3.5,-,N/A,,Clear,120,2012-12-08 03:53:00
10:53 PM,64.9,61.0,87,29.83,10.0,ESE,3.5,-,N/A,,Clear,120,2012-12-08 04:53:00
11:53 PM,62.1,60.1,93,29.83,8.0,Calm,Calm,-,N/A,,Clear,0,2012-12-08 05:53:00